This demonstration page uses our WeatherBlox Daily Observations layout. Learn more.

Left ArrowRight Arrow

Hourly Observations for September 30, 2019

Temp ( °F °C ) Dew Point ( °F °C ) Humidity (%) Winds ( mph kmh ) Pressure ( in mb ) Visibility ( mi km ) Precip ( " mm )
12:54 am 00:54 Cloudy 78 25.6 71 21.7 79 79 S 21 33 29.79 1009 10 16 0.00 0.00
1:32 am 01:32 Partly Cloudy 77 25 71 21.7 82 82 S 21 33 29.77 1008 10 16 0.00 0.00
1:54 am 01:54 Mostly Clear 77 25 71 21.7 82 82 S 18 30 29.79 1009 10 16 0.00 0.00
2:54 am 02:54 Partly Cloudy 76 24.4 70 21.1 82 82 S 16 26 29.80 1009 10 16 0.00 0.00
3:54 am 03:54 Mostly Clear 76 24.4 70 21.1 82 82 S 18 30 29.78 1009 10 16 0.00 0.00
4:54 am 04:54 Clear 76 24.4 70 21.1 82 82 S 21 33 29.78 1008 10 16 0.00 0.00
5:54 am 05:54 Mostly Clear 75 23.9 70 21.1 84 84 S 17 28 29.77 1008 10 16 0.00 0.00
6:54 am 06:54 Clear 75 23.9 69 20.6 82 82 S 17 28 29.76 1008 10 16 0.00 0.00
7:54 am 07:54 Sunny 75 23.9 68 20 79 79 S 20 31 29.77 1008 10 16 0.00 0.00
8:54 am 08:54 Sunny 77 25 68 20 74 74 S 24 39 29.75 1008 10 16 0.00 0.00
9:54 am 09:54 Sunny 80 26.7 68 20 67 67 SSW 25 41 29.76 1008 10 16 0.00 0.00
10:54 am 10:54 Sunny 83 28.3 68 20 61 61 SSW 28 44 29.76 1008 10 16 0.00 0.00
11:54 am 11:54 Sunny 86 30 68 20 55 55 SSW 23 37 29.74 1007 10 16 0.00 0.00
12:54 pm 12:54 Sunny 89 31.7 68 20 50 50 SSW 25 41 29.74 1007 10 16 0.00 0.00
1:54 pm 13:54 Sunny 90 32.2 67 19.4 47 47 SSW 22 35 29.71 1006 10 16 0.00 0.00
2:54 pm 14:54 Sunny 90 32.2 68 20 48 48 SSW 26 43 29.72 1006 10 16 0.00 0.00
3:54 pm 15:54 Sunny 91 32.8 69 20.6 49 49 SSW 20 31 29.71 1006 10 16 0.00 0.00
4:54 pm 16:54 Sunny 91 32.8 69 20.6 49 49 S 22 35 29.71 1006 10 16 0.00 0.00
5:54 pm 17:54 Mostly Sunny 89 31.7 68 20 50 50 SSW 18 30 29.73 1007 10 16 0.00 0.00
6:54 pm 18:54 Sunny 84 28.9 69 20.6 61 61 S 13 20 29.74 1007 10 16 0.00 0.00
7:54 pm 19:54 Clear 81 27.2 68 20 65 65 S 12 19 29.76 1008 10 16 0.00 0.00
8:54 pm 20:54 Clear 79 26.1 68 20 69 69 S 8 13 29.79 1009 10 16 0.00 0.00
9:54 pm 21:54 Clear 78 25.6 68 20 71 71 S 5 7 29.80 1009 10 16 0.00 0.00
10:54 pm 22:54 Clear 77 25 68 20 74 74 SSE 7 11 29.81 1009 10 16 0.00 0.00
11:54 pm 23:54 Clear 76 24.4 68 20 77 77 SE 6 9 29.79 1009 10 16 0.00 0.00

Powered by AerisWeather